| time (UTC) | temp F | wind direction | speed MPH | gust MPH | rain 1hr in | rain 24hr in | rain mn in | humidity % | barometer mb |
| 20260906023035 | 88 | 171 | 1.0 | 2.0 | 0.00 | 0.00 | 0.00 | 58 | 1012.7 |
| 20260906022535 | 88 | 181 | 1.0 | 2.0 | 0.00 | 0.00 | 0.00 | 57 | 1012.7 |
| 20260906022034 | 87 | 192 | 1.0 | 3.0 | 0.00 | 0.00 | 0.00 | 56 | 1012.6 |
| 20260906021536 | 87 | 0.0 | 0.0 | 0.00 | 0.00 | 0.00 | 55 | 1012.5 | |
| 20260906021034 | 87 | 0.0 | 0.0 | 0.00 | 0.00 | 0.00 | 55 | 1012.4 | |
| 20260906020534 | 87 | 0.0 | 0.0 | 0.00 | 0.00 | 0.00 | 54 | 1012.3 | |
| 20260906020034 | 88 | 0.0 | 0.0 | 0.00 | 0.00 | 0.00 | 54 | 1012.1 | |
| 20260906015534 | 88 | 0.0 | 0.0 | 0.00 | 0.00 | 0.00 | 54 | 1012.1 | |
| 20260906015035 | 88 | 0.0 | 0.0 | 0.00 | 0.00 | 0.00 | 54 | 1012.0 | |
| 20260906014534 | 89 | 0.0 | 0.0 | 0.00 | 0.00 | 0.00 | 53 | 1011.9 | |
| 20260906014034 | 89 | 149 | 0.0 | 1.0 | 0.00 | 0.00 | 0.00 | 53 | 1012.0 |
| 20260906013534 | 89 | 0.0 | 0.0 | 0.00 | 0.00 | 0.00 | 53 | 1011.9 | |
| 20260906013034 | 88 | 0.0 | 0.0 | 0.00 | 0.00 | 0.00 | 54 | 1011.9 | |
| 20260906012534 | 88 | 0.0 | 0.0 | 0.00 | 0.00 | 0.00 | 54 | 1011.8 | |
| 20260906012034 | 89 | 0.0 | 0.0 | 0.00 | 0.00 | 0.00 | 53 | 1011.7 | |
| 20260906011535 | 89 | 0.0 | 0.0 | 0.00 | 0.00 | 0.00 | 53 | 1011.7 | |
| 20260906011035 | 89 | 0.0 | 0.0 | 0.00 | 0.00 | 0.00 | 53 | 1011.7 | |
| 20260906010534 | 90 | 0.0 | 0.0 | 0.00 | 0.00 | 0.00 | 52 | 1011.7 | |
| 20260906010035 | 91 | 0.0 | 0.0 | 0.00 | 0.00 | 0.00 | 51 | 1011.7 | |
| 20260906005534 | 91 | 0.0 | 0.0 | 0.00 | 0.00 | 0.00 | 50 | 1011.6 | |
| 20260906005025 | 92 | 0.0 | 0.0 | 0.00 | 0.00 | 0.00 | 50 | 1011.6 | |
| 20260906004629 | 93 | 0.0 | 0.0 | 0.00 | 0.00 | 0.00 | 49 | 1011.7 | |
| 20260906004049 | 93 | 148 | 0.0 | 1.0 | 0.00 | 0.00 | 0.00 | 48 | 1011.5 |
| 20260906003554 | 94 | 155 | 0.0 | 1.0 | 0.00 | 0.00 | 0.00 | 47 | 1011.6 |
| 20260906003035 | 94 | 139 | 1.0 | 5.0 | 0.00 | 0.00 | 0.00 | 47 | 1011.5 |
| 20260906002534 | 94 | 144 | 1.0 | 2.0 | 0.00 | 0.00 | 0.00 | 46 | 1011.5 |
| 20260906002054 | 95 | 140 | 1.0 | 3.0 | 0.00 | 0.00 | 0.00 | 46 | 1011.5 |
| 20260906001637 | 95 | 143 | 1.0 | 2.0 | 0.00 | 0.00 | 0.00 | 45 | 1011.5 |
| 20260906001057 | 95 | 133 | 1.0 | 5.0 | 0.00 | 0.00 | 0.00 | 45 | 1011.5 |
| 20260906000535 | 95 | 157 | 1.0 | 5.0 | 0.00 | 0.00 | 0.00 | 45 | 1011.5 |
| 20260906000035 | 96 | 159 | 1.0 | 2.0 | 0.00 | 0.00 | 0.00 | 45 | 1011.4 |
| 20260905235534 | 96 | 161 | 0.0 | 1.0 | 0.00 | 0.00 | 0.00 | 44 | 1011.4 |
| 20260905235034 | 97 | 178 | 1.0 | 2.0 | 0.00 | 0.00 | 0.00 | 43 | 1011.2 |
| 20260905234615 | 97 | 158 | 0.0 | 1.0 | 0.00 | 0.00 | 0.00 | 42 | 1011.3 |
| 20260905234034 | 98 | 145 | 0.0 | 1.0 | 0.00 | 0.00 | 0.00 | 42 | 1011.4 |
| 20260905233554 | 99 | 131 | 1.0 | 2.0 | 0.00 | 0.00 | 0.00 | 41 | 1011.2 |
| 20260905233054 | 99 | 151 | 1.0 | 2.0 | 0.00 | 0.00 | 0.00 | 39 | 1011.3 |
| 20260905232534 | 99 | 98 | 1.0 | 3.0 | 0.00 | 0.00 | 0.00 | 40 | 1011.2 |
| 20260905232034 | 100 | 127 | 1.0 | 3.0 | 0.00 | 0.00 | 0.00 | 39 | 1011.2 |
| 20260905231535 | 100 | 162 | 1.0 | 3.0 | 0.00 | 0.00 | 0.00 | 39 | 1011.3 |
| 20260905231035 | 101 | 153 | 0.0 | 2.0 | 0.00 | 0.00 | 0.00 | 38 | 1011.1 |
| 20260905230534 | 100 | 173 | 1.0 | 1.0 | 0.00 | 0.00 | 0.00 | 38 | 1011.2 |
| 20260905230035 | 101 | 174 | 1.0 | 2.0 | 0.00 | 0.00 | 0.00 | 39 | 1011.1 |
| 20260905225534 | 100 | 173 | 0.0 | 1.0 | 0.00 | 0.00 | 0.00 | 39 | 1011.3 |
| 20260905225134 | 99 | 185 | 0.0 | 1.0 | 0.00 | 0.00 | 0.00 | 40 | 1011.2 |
| 20260905224535 | 99 | 177 | 1.0 | 2.0 | 0.00 | 0.00 | 0.00 | 40 | 1011.2 |
| 20260905224054 | 99 | 157 | 2.0 | 5.0 | 0.00 | 0.00 | 0.00 | 40 | 1011.2 |
| 20260905223554 | 99 | 142 | 1.0 | 3.0 | 0.00 | 0.00 | 0.00 | 40 | 1011.2 |
| 20260905223035 | 100 | 147 | 1.0 | 3.0 | 0.00 | 0.00 | 0.00 | 40 | 1011.3 |
| 20260905222522 | 100 | 144 | 2.0 | 3.0 | 0.00 | 0.00 | 0.00 | 40 | 1011.4 |
| 20260905222105 | 101 | 162 | 1.0 | 3.0 | 0.00 | 0.00 | 0.00 | 39 | 1011.4 |
| 20260905221626 | 101 | 173 | 1.0 | 2.0 | 0.00 | 0.00 | 0.00 | 39 | 1011.4 |
| 20260905221034 | 101 | 198 | 1.0 | 2.0 | 0.00 | 0.00 | 0.00 | 40 | 1011.4 |
| 20260905220534 | 100 | 149 | 2.0 | 5.0 | 0.00 | 0.00 | 0.00 | 40 | 1011.5 |
| 20260905220036 | 100 | 128 | 2.0 | 6.0 | 0.00 | 0.00 | 0.00 | 40 | 1011.4 |
| 20260905215530 | 99 | 189 | 1.0 | 2.0 | 0.00 | 0.00 | 0.00 | 41 | 1011.4 |
| 20260905215134 | 99 | 111 | 2.0 | 5.0 | 0.00 | 0.00 | 0.00 | 41 | 1011.4 |
| 20260905214554 | 100 | 138 | 1.0 | 3.0 | 0.00 | 0.00 | 0.00 | 40 | 1011.6 |
| 20260905214034 | 100 | 125 | 1.0 | 3.0 | 0.00 | 0.00 | 0.00 | 40 | 1011.5 |
| 20260905213534 | 101 | 180 | 2.0 | 7.0 | 0.00 | 0.00 | 0.00 | 39 | 1011.6 |
| 20260905213035 | 102 | 192 | 2.0 | 3.0 | 0.00 | 0.00 | 0.00 | 39 | 1011.7 |
| 20260905212534 | 101 | 177 | 2.0 | 3.0 | 0.00 | 0.00 | 0.00 | 39 | 1011.7 |
| 20260905212121 | 102 | 172 | 1.0 | 3.0 | 0.00 | 0.00 | 0.00 | 39 | 1011.7 |
| 20260905211622 | 101 | 134 | 2.0 | 6.0 | 0.00 | 0.00 | 0.00 | 40 | 1011.7 |
| 20260905211034 | 102 | 129 | 1.0 | 5.0 | 0.00 | 0.00 | 0.00 | 39 | 1011.8 |
| 20260905210535 | 101 | 194 | 1.0 | 3.0 | 0.00 | 0.00 | 0.00 | 39 | 1011.9 |
| 20260905210055 | 100 | 153 | 1.0 | 2.0 | 0.00 | 0.00 | 0.00 | 40 | 1011.9 |
| 20260905205530 | 99 | 106 | 2.0 | 8.0 | 0.00 | 0.00 | 0.00 | 41 | 1012.0 |
| 20260905205113 | 100 | 154 | 3.0 | 7.0 | 0.00 | 0.00 | 0.00 | 40 | 1012.1 |
| 20260905204554 | 100 | 129 | 1.0 | 2.0 | 0.00 | 0.00 | 0.00 | 40 | 1012.2 |
| 20260905204034 | 100 | 167 | 1.0 | 3.0 | 0.00 | 0.00 | 0.00 | 40 | 1012.4 |
| 20260905203534 | 100 | 160 | 2.0 | 5.0 | 0.00 | 0.00 | 0.00 | 39 | 1012.5 |
| 20260905203035 | 101 | 123 | 2.0 | 3.0 | 0.00 | 0.00 | 0.00 | 39 | 1012.4 |
| 20260905202655 | 100 | 227 | 1.0 | 2.0 | 0.00 | 0.00 | 0.00 | 40 | 1012.6 |
| 20260905202141 | 101 | 193 | 1.0 | 2.0 | 0.00 | 0.00 | 0.00 | 40 | 1012.6 |
| 20260905201601 | 100 | 205 | 2.0 | 5.0 | 0.00 | 0.00 | 0.00 | 41 | 1012.7 |
| 20260905201035 | 101 | 159 | 2.0 | 3.0 | 0.00 | 0.00 | 0.00 | 40 | 1012.8 |
| 20260905200535 | 100 | 191 | 1.0 | 2.0 | 0.00 | 0.00 | 0.00 | 42 | 1012.9 |
| 20260905200035 | 101 | 196 | 1.0 | 3.0 | 0.00 | 0.00 | 0.00 | 40 | 1012.9 |
| 20260905195614 | 100 | 185 | 1.0 | 2.0 | 0.00 | 0.00 | 0.00 | 40 | 1013.0 |
| 20260905195046 | 100 | 201 | 1.0 | 3.0 | 0.00 | 0.00 | 0.00 | 40 | 1013.1 |
| 20260905194609 | 100 | 213 | 2.0 | 5.0 | 0.00 | 0.00 | 0.00 | 40 | 1013.0 |
| 20260905194049 | 100 | 197 | 1.0 | 3.0 | 0.00 | 0.00 | 0.00 | 41 | 1013.2 |
| 20260905193534 | 99 | 175 | 2.0 | 3.0 | 0.00 | 0.00 | 0.00 | 41 | 1013.2 |
| 20260905193035 | 100 | 191 | 2.0 | 3.0 | 0.00 | 0.00 | 0.00 | 41 | 1013.4 |
| 20260905192534 | 99 | 197 | 1.0 | 3.0 | 0.00 | 0.00 | 0.00 | 42 | 1013.5 |
| 20260905192034 | 99 | 219 | 2.0 | 3.0 | 0.00 | 0.00 | 0.00 | 43 | 1013.6 |
| 20260905191618 | 99 | 207 | 2.0 | 3.0 | 0.00 | 0.00 | 0.00 | 44 | 1013.7 |
| 20260905191057 | 99 | 167 | 1.0 | 2.0 | 0.00 | 0.00 | 0.00 | 44 | 1013.8 |
| 20260905190534 | 99 | 181 | 1.0 | 3.0 | 0.00 | 0.00 | 0.00 | 42 | 1013.9 |
| 20260905190035 | 99 | 200 | 2.0 | 3.0 | 0.00 | 0.00 | 0.00 | 44 | 1013.9 |
| 20260905185534 | 98 | 195 | 1.0 | 2.0 | 0.00 | 0.00 | 0.00 | 44 | 1013.9 |
| 20260905185034 | 98 | 185 | 1.0 | 2.0 | 0.00 | 0.00 | 0.00 | 44 | 1014.0 |
| 20260905184534 | 99 | 193 | 2.0 | 6.0 | 0.00 | 0.00 | 0.00 | 41 | 1014.2 |
| 20260905184034 | 98 | 174 | 1.0 | 3.0 | 0.00 | 0.00 | 0.00 | 43 | 1014.2 |
| 20260905183535 | 98 | 201 | 2.0 | 5.0 | 0.00 | 0.00 | 0.00 | 44 | 1014.3 |
| 20260905183034 | 98 | 173 | 1.0 | 3.0 | 0.00 | 0.00 | 0.00 | 45 | 1014.2 |
| 20260905182534 | 97 | 180 | 2.0 | 3.0 | 0.00 | 0.00 | 0.00 | 45 | 1014.3 |
| 20260905182034 | 97 | 187 | 2.0 | 3.0 | 0.00 | 0.00 | 0.00 | 45 | 1014.4 |
| 20260905181658 | 98 | 224 | 2.0 | 5.0 | 0.00 | 0.00 | 0.00 | 46 | 1014.5 |
| 20260905181057 | 98 | 197 | 1.0 | 3.0 | 0.00 | 0.00 | 0.00 | 44 | 1014.5 |
| 20260905180554 | 98 | 193 | 2.0 | 3.0 | 0.00 | 0.00 | 0.00 | 44 | 1014.7 |
| 20260905180121 | 97 | 185 | 1.0 | 3.0 | 0.00 | 0.00 | 0.00 | 45 | 1014.8 |
| 20260905175601 | 97 | 185 | 1.0 | 2.0 | 0.00 | 0.00 | 0.00 | 45 | 1014.8 |
| 20260905175034 | 97 | 196 | 1.0 | 2.0 | 0.00 | 0.00 | 0.00 | 46 | 1015.0 |
| 20260905174523 | 96 | 92 | 1.0 | 2.0 | 0.00 | 0.00 | 0.00 | 47 | 1014.9 |
| 20260905174105 | 96 | 204 | 2.0 | 3.0 | 0.00 | 0.00 | 0.00 | 46 | 1014.9 |
| 20260905173535 | 96 | 197 | 1.0 | 2.0 | 0.00 | 0.00 | 0.00 | 47 | 1015.0 |
| 20260905173034 | 96 | 218 | 2.0 | 3.0 | 0.00 | 0.00 | 0.00 | 46 | 1015.1 |
| 20260905172534 | 96 | 183 | 1.0 | 3.0 | 0.00 | 0.00 | 0.00 | 48 | 1015.0 |
| 20260905172034 | 96 | 209 | 1.0 | 3.0 | 0.00 | 0.00 | 0.00 | 49 | 1015.2 |
| 20260905171535 | 96 | 188 | 2.0 | 3.0 | 0.00 | 0.00 | 0.00 | 49 | 1015.2 |
| 20260905171034 | 95 | 179 | 1.0 | 2.0 | 0.00 | 0.00 | 0.00 | 49 | 1015.3 |
| 20260905170522 | 94 | 197 | 2.0 | 5.0 | 0.00 | 0.00 | 0.00 | 50 | 1015.3 |
| 20260905170105 | 94 | 165 | 2.0 | 3.0 | 0.00 | 0.00 | 0.00 | 50 | 1015.3 |
| 20260905165534 | 94 | 141 | 1.0 | 7.0 | 0.00 | 0.00 | 0.00 | 52 | 1015.3 |
| 20260905165034 | 94 | 169 | 2.0 | 3.0 | 0.00 | 0.00 | 0.00 | 49 | 1015.5 |
| 20260905164523 | 94 | 202 | 1.0 | 2.0 | 0.00 | 0.00 | 0.00 | 50 | 1015.4 |
| 20260905164105 | 93 | 192 | 1.0 | 2.0 | 0.00 | 0.00 | 0.00 | 53 | 1015.4 |
| 20260905163534 | 93 | 188 | 1.0 | 2.0 | 0.00 | 0.00 | 0.00 | 51 | 1015.4 |
| 20260905163035 | 93 | 190 | 1.0 | 2.0 | 0.00 | 0.00 | 0.00 | 51 | 1015.5 |
| 20260905162534 | 93 | 177 | 1.0 | 2.0 | 0.00 | 0.00 | 0.00 | 51 | 1015.5 |
| 20260905162034 | 93 | 156 | 2.0 | 5.0 | 0.00 | 0.00 | 0.00 | 53 | 1015.3 |
| 20260905161531 | 93 | 151 | 1.0 | 2.0 | 0.00 | 0.00 | 0.00 | 55 | 1015.4 |
| 20260905161113 | 92 | 158 | 1.0 | 1.0 | 0.00 | 0.00 | 0.00 | 56 | 1015.4 |
| 20260905160553 | 92 | 167 | 0.0 | 1.0 | 0.00 | 0.00 | 0.00 | 56 | 1015.4 |
| 20260905160035 | 91 | 183 | 1.0 | 2.0 | 0.00 | 0.00 | 0.00 | 57 | 1015.5 |
| 20260905155530 | 91 | 179 | 0.0 | 1.0 | 0.00 | 0.00 | 0.00 | 60 | 1015.4 |
| 20260905155113 | 91 | 183 | 1.0 | 2.0 | 0.00 | 0.00 | 0.00 | 62 | 1015.6 |
| 20260905154553 | 90 | 151 | 1.0 | 2.0 | 0.00 | 0.00 | 0.00 | 61 | 1015.5 |
| 20260905154114 | 90 | 184 | 1.0 | 2.0 | 0.00 | 0.00 | 0.00 | 63 | 1015.5 |
| 20260905153618 | 89 | 166 | 0.0 | 1.0 | 0.00 | 0.00 | 0.00 | 63 | 1015.5 |
| 20260905153057 | 89 | 168 | 1.0 | 3.0 | 0.00 | 0.00 | 0.00 | 64 | 1015.5 |
| 20260905152534 | 89 | 167 | 1.0 | 2.0 | 0.00 | 0.00 | 0.00 | 64 | 1015.5 |
| 20260905152122 | 89 | 168 | 1.0 | 2.0 | 0.00 | 0.00 | 0.00 | 64 | 1015.5 |
| 20260905151601 | 88 | 134 | 1.0 | 3.0 | 0.00 | 0.00 | 0.00 | 66 | 1015.5 |
| 20260905151034 | 88 | 198 | 1.0 | 1.0 | 0.00 | 0.00 | 0.00 | 67 | 1015.6 |
| 20260905150522 | 88 | 154 | 1.0 | 2.0 | 0.00 | 0.00 | 0.00 | 67 | 1015.5 |
| 20260905150105 | 87 | 161 | 0.0 | 2.0 | 0.00 | 0.00 | 0.00 | 68 | 1015.4 |
| 20260905145554 | 87 | 167 | 1.0 | 2.0 | 0.00 | 0.00 | 0.00 | 69 | 1015.5 |
| 20260905145026 | 87 | 114 | 0.0 | 1.0 | 0.00 | 0.00 | 0.00 | 69 | 1015.5 |
| 20260905144609 | 86 | 196 | 0.0 | 1.0 | 0.00 | 0.00 | 0.00 | 71 | 1015.4 |
| 20260905144049 | 86 | 154 | 1.0 | 2.0 | 0.00 | 0.00 | 0.00 | 72 | 1015.5 |
| 20260905143530 | 85 | 176 | 0.0 | 1.0 | 0.00 | 0.00 | 0.00 | 72 | 1015.4 |
| 20260905143114 | 85 | 165 | 0.0 | 1.0 | 0.00 | 0.00 | 0.00 | 73 | 1015.3 |
| 20260905142553 | 85 | 0.0 | 0.0 | 0.00 | 0.00 | 0.00 | 73 | 1015.4 | |
| 20260905142034 | 84 | 163 | 0.0 | 1.0 | 0.00 | 0.00 | 0.00 | 74 | 1015.4 |
| 20260905141618 | 84 | 158 | 0.0 | 1.0 | 0.00 | 0.00 | 0.00 | 75 | 1015.3 |
| 20260905141057 | 83 | 154 | 0.0 | 1.0 | 0.00 | 0.00 | 0.00 | 76 | 1015.3 |
| 20260905140534 | 83 | 165 | 0.0 | 1.0 | 0.00 | 0.00 | 0.00 | 77 | 1015.3 |
| 20260905140121 | 83 | 179 | 0.0 | 1.0 | 0.00 | 0.00 | 0.00 | 77 | 1015.3 |
| 20260905135622 | 83 | 157 | 0.0 | 1.0 | 0.00 | 0.00 | 0.00 | 77 | 1015.3 |
| 20260905135035 | 83 | 171 | 0.0 | 1.0 | 0.00 | 0.00 | 0.00 | 78 | 1015.3 |
| 20260905134523 | 83 | 168 | 0.0 | 1.0 | 0.00 | 0.00 | 0.00 | 77 | 1015.3 |
| 20260905134105 | 82 | 165 | 0.0 | 1.0 | 0.00 | 0.00 | 0.00 | 78 | 1015.2 |
| 20260905133534 | 83 | 162 | 0.0 | 1.0 | 0.00 | 0.00 | 0.00 | 77 | 1015.3 |
| 20260905133027 | 83 | 161 | 0.0 | 1.0 | 0.00 | 0.00 | 0.00 | 77 | 1015.2 |
| 20260905132609 | 81 | 0.0 | 0.0 | 0.00 | 0.00 | 0.00 | 81 | 1015.2 | |
| 20260905132049 | 79 | 156 | 0.0 | 1.0 | 0.00 | 0.00 | 0.00 | 84 | 1015.1 |
| 20260905131535 | 77 | 0.0 | 0.0 | 0.00 | 0.00 | 0.00 | 87 | 1015.0 | |
| 20260905131026 | 76 | 0.0 | 0.0 | 0.00 | 0.00 | 0.00 | 89 | 1015.0 | |
| 20260905130610 | 76 | 158 | 0.0 | 1.0 | 0.00 | 0.00 | 0.00 | 90 | 1015.0 |
| 20260905130050 | 76 | 0.0 | 0.0 | 0.00 | 0.00 | 0.00 | 90 | 1014.9 | |
| 20260905125554 | 76 | 160 | 0.0 | 1.0 | 0.00 | 0.00 | 0.00 | 90 | 1014.9 |
| 20260905125034 | 75 | 160 | 0.0 | 1.0 | 0.00 | 0.00 | 0.00 | 91 | 1014.8 |
| 20260905124535 | 75 | 0.0 | 0.0 | 0.00 | 0.00 | 0.00 | 91 | 1014.8 | |
| 20260905124034 | 75 | 0.0 | 0.0 | 0.00 | 0.00 | 0.00 | 91 | 1014.8 | |
| 20260905123535 | 75 | 0.0 | 0.0 | 0.00 | 0.00 | 0.00 | 91 | 1014.6 | |
| 20260905123035 | 75 | 0.0 | 0.0 | 0.00 | 0.00 | 0.00 | 91 | 1014.7 | |
| 20260905122535 | 75 | 0.0 | 0.0 | 0.00 | 0.00 | 0.00 | 91 | 1014.6 | |
| 20260905122055 | 75 | 0.0 | 0.0 | 0.00 | 0.00 | 0.00 | 91 | 1014.4 | |
| 20260905121535 | 74 | 0.0 | 0.0 | 0.00 | 0.00 | 0.00 | 91 | 1014.4 | |
| 20260905121034 | 75 | 0.0 | 0.0 | 0.00 | 0.00 | 0.00 | 90 | 1014.4 | |
| 20260905120543 | 75 | 0.0 | 0.0 | 0.00 | 0.00 | 0.00 | 90 | 1014.3 | |
| 20260905120106 | 75 | 0.0 | 0.0 | 0.00 | 0.00 | 0.00 | 90 | 1014.5 | |
| 20260905115545 | 75 | 0.0 | 0.0 | 0.00 | 0.00 | 0.00 | 90 | 1014.4 | |
| 20260905115054 | 75 | 0.0 | 0.0 | 0.00 | 0.00 | 0.00 | 89 | 1014.4 | |
| 20260905114535 | 76 | 161 | 0.0 | 1.0 | 0.00 | 0.00 | 0.00 | 89 | 1014.3 |
| 20260905114034 | 76 | 161 | 0.0 | 1.0 | 0.00 | 0.00 | 0.00 | 89 | 1014.2 |
| 20260905113531 | 76 | 0.0 | 0.0 | 0.00 | 0.00 | 0.00 | 88 | 1014.4 | |
| 20260905113113 | 76 | 0.0 | 0.0 | 0.00 | 0.00 | 0.00 | 88 | 1014.3 | |
| 20260905112553 | 76 | 0.0 | 0.0 | 0.00 | 0.00 | 0.00 | 87 | 1014.3 | |
| 20260905112035 | 77 | 0.0 | 0.0 | 0.00 | 0.00 | 0.00 | 87 | 1014.3 | |
| 20260905111555 | 77 | 0.0 | 0.0 | 0.00 | 0.00 | 0.00 | 86 | 1014.3 | |
| 20260905111034 | 77 | 161 | 0.0 | 1.0 | 0.00 | 0.00 | 0.00 | 86 | 1014.3 |
| 20260905110523 | 77 | 162 | 0.0 | 1.0 | 0.00 | 0.00 | 0.00 | 85 | 1014.2 |
| 20260905110105 | 77 | 161 | 0.0 | 1.0 | 0.00 | 0.00 | 0.00 | 85 | 1014.3 |
| 20260905105546 | 77 | 160 | 1.0 | 1.0 | 0.00 | 0.00 | 0.00 | 86 | 1014.2 |
| 20260905105034 | 77 | 157 | 1.0 | 1.0 | 0.00 | 0.00 | 0.00 | 86 | 1014.1 |
| 20260905104535 | 77 | 157 | 0.0 | 1.0 | 0.00 | 0.00 | 0.00 | 86 | 1014.3 |
| 20260905104054 | 77 | 156 | 0.0 | 1.0 | 0.00 | 0.00 | 0.00 | 86 | 1014.2 |
| 20260905103530 | 77 | 161 | 1.0 | 1.0 | 0.00 | 0.00 | 0.00 | 86 | 1014.2 |
| 20260905103113 | 76 | 165 | 1.0 | 1.0 | 0.00 | 0.00 | 0.00 | 86 | 1014.1 |
| 20260905102554 | 76 | 168 | 1.0 | 1.0 | 0.00 | 0.00 | 0.00 | 86 | 1014.2 |
| 20260905102034 | 76 | 168 | 1.0 | 1.0 | 0.00 | 0.00 | 0.00 | 86 | 1014.1 |
| 20260905101535 | 76 | 168 | 1.0 | 1.0 | 0.00 | 0.00 | 0.00 | 86 | 1014.2 |
| 20260905101034 | 76 | 168 | 1.0 | 1.0 | 0.00 | 0.00 | 0.00 | 86 | 1014.2 |
| 20260905100534 | 76 | 168 | 1.0 | 1.0 | 0.00 | 0.00 | 0.00 | 86 | 1014.1 |
| 20260905100019 | 76 | 169 | 0.0 | 1.0 | 0.00 | 0.00 | 0.00 | 86 | 1014.2 |
| 20260905095622 | 77 | 169 | 0.0 | 1.0 | 0.00 | 0.00 | 0.00 | 85 | 1014.3 |
| 20260905095035 | 77 | 169 | 0.0 | 1.0 | 0.00 | 0.00 | 0.00 | 85 | 1014.4 |
| 20260905094534 | 77 | 169 | 0.0 | 1.0 | 0.00 | 0.00 | 0.00 | 85 | 1014.3 |
| 20260905094034 | 77 | 170 | 0.0 | 1.0 | 0.00 | 0.00 | 0.00 | 85 | 1014.3 |
| 20260905093534 | 77 | 170 | 0.0 | 1.0 | 0.00 | 0.00 | 0.00 | 84 | 1014.4 |
| 20260905093027 | 77 | 170 | 0.0 | 1.0 | 0.00 | 0.00 | 0.00 | 84 | 1014.3 |
| 20260905092609 | 77 | 0.0 | 0.0 | 0.00 | 0.00 | 0.00 | 84 | 1014.4 | |
| 20260905092050 | 77 | 0.0 | 0.0 | 0.00 | 0.00 | 0.00 | 84 | 1014.1 | |
| 20260905091535 | 77 | 0.0 | 0.0 | 0.00 | 0.00 | 0.00 | 84 | 1014.2 | |
| 20260905091034 | 77 | 0.0 | 0.0 | 0.00 | 0.00 | 0.00 | 84 | 1014.1 | |
| 20260905090534 | 77 | 170 | 0.0 | 1.0 | 0.00 | 0.00 | 0.00 | 83 | 1014.1 |
| 20260905090055 | 77 | 170 | 0.0 | 1.0 | 0.00 | 0.00 | 0.00 | 83 | 1014.1 |
| 20260905085534 | 77 | 170 | 0.0 | 1.0 | 0.00 | 0.00 | 0.00 | 83 | 1014.1 |
| 20260905085034 | 77 | 171 | 0.0 | 1.0 | 0.00 | 0.00 | 0.00 | 83 | 1014.0 |
| 20260905084535 | 78 | 0.0 | 0.0 | 0.00 | 0.00 | 0.00 | 82 | 1014.0 | |
| 20260905084034 | 78 | 0.0 | 0.0 | 0.00 | 0.00 | 0.00 | 82 | 1013.9 | |
| 20260905083535 | 78 | 0.0 | 0.0 | 0.00 | 0.00 | 0.00 | 82 | 1014.0 | |
| 20260905083027 | 78 | 0.0 | 0.0 | 0.00 | 0.00 | 0.00 | 82 | 1014.0 | |
| 20260905082610 | 78 | 0.0 | 0.0 | 0.00 | 0.00 | 0.00 | 81 | 1014.0 | |
| 20260905082049 | 78 | 0.0 | 0.0 | 0.00 | 0.00 | 0.00 | 81 | 1014.0 | |
| 20260905081535 | 78 | 0.0 | 0.0 | 0.00 | 0.00 | 0.00 | 81 | 1014.0 | |
| 20260905081034 | 79 | 0.0 | 0.0 | 0.00 | 0.00 | 0.00 | 80 | 1014.0 | |
| 20260905080534 | 79 | 0.0 | 0.0 | 0.00 | 0.00 | 0.00 | 79 | 1013.9 | |
| 20260905080035 | 80 | 0.0 | 0.0 | 0.00 | 0.00 | 0.00 | 78 | 1013.9 | |
| 20260905075617 | 80 | 171 | 0.0 | 1.0 | 0.00 | 0.00 | 0.00 | 78 | 1014.0 |
| 20260905075058 | 80 | 0.0 | 0.0 | 0.00 | 0.00 | 0.00 | 78 | 1014.1 | |
| 20260905074535 | 80 | 0.0 | 0.0 | 0.00 | 0.00 | 0.00 | 77 | 1014.1 | |
| 20260905074035 | 81 | 171 | 0.0 | 1.0 | 0.00 | 0.00 | 0.00 | 76 | 1014.1 |
| 20260905073535 | 81 | 171 | 0.0 | 1.0 | 0.00 | 0.00 | 0.00 | 75 | 1014.1 |
| 20260905073035 | 81 | 169 | 0.0 | 1.0 | 0.00 | 0.00 | 0.00 | 75 | 1014.2 |
| 20260905072603 | 81 | 171 | 0.0 | 1.0 | 0.00 | 0.00 | 0.00 | 75 | 1014.2 |
| 20260905072105 | 82 | 177 | 0.0 | 1.0 | 0.00 | 0.00 | 0.00 | 75 | 1014.2 |
| 20260905071536 | 82 | 177 | 0.0 | 1.0 | 0.00 | 0.00 | 0.00 | 74 | 1014.2 |
| 20260905071034 | 82 | 175 | 0.0 | 1.0 | 0.00 | 0.00 | 0.00 | 74 | 1014.3 |
| 20260905070534 | 82 | 175 | 0.0 | 1.0 | 0.00 | 0.00 | 0.00 | 74 | 1014.3 |
| 20260905070055 | 82 | 175 | 0.0 | 1.0 | 0.00 | 0.00 | 0.00 | 73 | 1014.4 |
| 20260905065617 | 83 | 175 | 1.0 | 1.0 | 0.00 | 0.00 | 0.00 | 73 | 1014.3 |
| 20260905065058 | 83 | 179 | 1.0 | 2.0 | 0.00 | 0.00 | 0.00 | 73 | 1014.5 |
| 20260905064538 | 83 | 176 | 1.0 | 2.0 | 0.00 | 0.00 | 0.00 | 73 | 1014.4 |
| 20260905064034 | 83 | 173 | 0.0 | 1.0 | 0.00 | 0.00 | 0.00 | 73 | 1014.4 |
| 20260905063534 | 83 | 180 | 1.0 | 1.0 | 0.00 | 0.00 | 0.00 | 72 | 1014.5 |
| 20260905063035 | 84 | 171 | 1.0 | 3.0 | 0.00 | 0.00 | 0.00 | 72 | 1014.3 |
| 20260905062523 | 84 | 177 | 1.0 | 2.0 | 0.00 | 0.00 | 0.00 | 72 | 1014.2 |
| 20260905062106 | 84 | 178 | 1.0 | 2.0 | 0.00 | 0.00 | 0.00 | 71 | 1014.3 |
| 20260905061606 | 84 | 179 | 2.0 | 5.0 | 0.00 | 0.00 | 0.00 | 71 | 1014.3 |
| 20260905061034 | 84 | 181 | 1.0 | 2.0 | 0.00 | 0.00 | 0.00 | 71 | 1014.2 |
| 20260905060533 | 84 | 176 | 1.0 | 2.0 | 0.00 | 0.00 | 0.00 | 71 | 1014.3 |
| 20260905060035 | 84 | 178 | 1.0 | 2.0 | 0.00 | 0.00 | 0.00 | 70 | 1014.3 |
| 20260905055551 | 84 | 179 | 1.0 | 2.0 | 0.00 | 0.00 | 0.00 | 70 | 1014.2 |
| 20260905055134 | 84 | 174 | 1.0 | 2.0 | 0.00 | 0.00 | 0.00 | 69 | 1014.2 |
| 20260905054554 | 84 | 182 | 1.0 | 2.0 | 0.00 | 0.00 | 0.00 | 68 | 1014.2 |
| 20260905054054 | 85 | 177 | 1.0 | 1.0 | 0.00 | 0.00 | 0.00 | 68 | 1014.1 |
| 20260905053530 | 85 | 179 | 1.0 | 2.0 | 0.00 | 0.00 | 0.00 | 68 | 1014.1 |
| 20260905053113 | 85 | 175 | 0.0 | 1.0 | 0.00 | 0.00 | 0.00 | 68 | 1014.1 |
| 20260905052554 | 85 | 174 | 1.0 | 2.0 | 0.00 | 0.00 | 0.00 | 67 | 1014.0 |
| 20260905052033 | 85 | 174 | 1.0 | 1.0 | 0.00 | 0.00 | 0.00 | 67 | 1014.0 |
| 20260905051534 | 85 | 176 | 1.0 | 2.0 | 0.00 | 0.00 | 0.00 | 66 | 1013.9 |
| 20260905051034 | 85 | 180 | 1.0 | 2.0 | 0.00 | 0.00 | 0.00 | 66 | 1013.9 |
| 20260905050535 | 85 | 175 | 1.0 | 1.0 | 0.00 | 0.00 | 0.00 | 65 | 1014.0 |
| 20260905050037 | 86 | 180 | 1.0 | 2.0 | 0.00 | 0.00 | 0.00 | 64 | 1013.9 |
| 20260905045534 | 86 | 179 | 1.0 | 2.0 | 0.00 | 0.00 | 0.00 | 64 | 1014.0 |
| 20260905045034 | 86 | 180 | 1.0 | 2.0 | 0.00 | 0.00 | 0.00 | 63 | 1013.9 |
| 20260905044534 | 86 | 175 | 1.0 | 2.0 | 0.00 | 0.00 | 0.00 | 63 | 1013.9 |
| 20260905044034 | 85 | 171 | 1.0 | 2.0 | 0.00 | 0.00 | 0.00 | 63 | 1013.9 |
| 20260905043534 | 86 | 171 | 1.0 | 1.0 | 0.00 | 0.00 | 0.00 | 63 | 1013.9 |
| 20260905043034 | 86 | 174 | 0.0 | 1.0 | 0.00 | 0.00 | 0.00 | 63 | 1013.9 |
| 20260905042534 | 86 | 174 | 1.0 | 1.0 | 0.00 | 0.00 | 0.00 | 62 | 1013.9 |
| 20260905042034 | 85 | 177 | 1.0 | 2.0 | 0.00 | 0.00 | 0.00 | 63 | 1013.9 |
| 20260905041534 | 85 | 173 | 0.0 | 1.0 | 0.00 | 0.00 | 0.00 | 63 | 1013.8 |
| 20260905041033 | 86 | 0.0 | 0.0 | 0.00 | 0.00 | 0.00 | 62 | 1013.8 | |
| 20260905040533 | 86 | 0.0 | 0.0 | 0.00 | 0.00 | 0.00 | 61 | 1013.7 | |
| 20260905040034 | 87 | 172 | 1.0 | 1.0 | 0.00 | 0.00 | 0.00 | 60 | 1013.6 |
| 20260905035534 | 87 | 171 | 0.0 | 1.0 | 0.00 | 0.00 | 0.00 | 59 | 1013.7 |
| 20260905035034 | 87 | 176 | 1.0 | 2.0 | 0.00 | 0.00 | 0.00 | 59 | 1013.6 |
| 20260905034534 | 87 | 170 | 0.0 | 1.0 | 0.00 | 0.00 | 0.00 | 58 | 1013.5 |
| 20260905034033 | 88 | 175 | 0.0 | 1.0 | 0.00 | 0.00 | 0.00 | 58 | 1013.7 |
| 20260905033534 | 88 | 175 | 1.0 | 1.0 | 0.00 | 0.00 | 0.00 | 58 | 1013.6 |
| 20260905033055 | 88 | 181 | 1.0 | 1.0 | 0.00 | 0.00 | 0.00 | 58 | 1013.6 |
| 20260905032534 | 88 | 183 | 1.0 | 2.0 | 0.00 | 0.00 | 0.00 | 58 | 1013.5 |
| 20260905032033 | 88 | 180 | 1.0 | 1.0 | 0.00 | 0.00 | 0.00 | 58 | 1013.5 |
| 20260905031555 | 88 | 180 | 0.0 | 1.0 | 0.00 | 0.00 | 0.00 | 58 | 1013.4 |
| 20260905031054 | 88 | 179 | 1.0 | 1.0 | 0.00 | 0.00 | 0.00 | 57 | 1013.4 |
| 20260905030534 | 89 | 180 | 0.0 | 1.0 | 0.00 | 0.00 | 0.00 | 57 | 1013.4 |
| 20260905030035 | 89 | 177 | 1.0 | 3.0 | 0.00 | 0.00 | 0.00 | 57 | 1013.3 |
| 20260905025534 | 89 | 170 | 1.0 | 1.0 | 0.00 | 0.00 | 0.00 | 57 | 1013.3 |
| 20260905025054 | 89 | 183 | 1.0 | 2.0 | 0.00 | 0.00 | 0.00 | 56 | 1013.2 |
| 20260905024534 | 90 | 185 | 1.0 | 2.0 | 0.00 | 0.00 | 0.00 | 55 | 1013.3 |
| 20260905024033 | 89 | 188 | 1.0 | 3.0 | 0.00 | 0.00 | 0.00 | 56 | 1013.3 |
| 20260905023533 | 90 | 181 | 1.0 | 2.0 | 0.00 | 0.00 | 0.00 | 56 | 1013.1 |